Weather History for KSDA - November, 2012

Change the Weather History Date:

Tuesday, November 6, 2012

  Actual Average Record
Temperature  
Mean Temperature 48 °F -  
Max Temperature 60 °F 52 °F 82 °F (2001)
Min Temperature 33 °F 33 °F 10 °F (1959)
Degree Days  
Heating Degree Days 18    
Moisture  
Dew Point 34 °F    
Average Humidity 60    
Maximum Humidity 81    
Minimum Humidity 25    
Precipitation  
Precipitation 0.00 in - - ()
Sea Level Pressure  
Sea Level Pressure 30.03 in    
Wind  
Wind Speed 10 mph (WNW)    
Max Wind Speed 20 mph    
Max Gust Speed 31 mph    
Visibility 8 miles    
Events      
Averages and records for this station are not official NWS values.
T = Trace of Precipitation, MM = Missing Value Source: NWS Daily Summary

Daily Weather History Graph

Daily Weather History Graph

Search for Another Location

Airport or City:

Trip Planner

Search our weather history database for the weather conditions in past years. The results will help you decide how hot, cold, wet, or windy it might be!

Date:

Astronomy

Nov. 06, 2012 Rise Set
Actual Time 6:58 AM CST 5:11 PM CST
Civil Twilight 6:29 AM CST 5:40 PM CST
Nautical Twilight 5:57 AM CST 6:12 PM CST
Astronomical Twilight 5:24 AM CST 6:45 PM CST
Moon 11:52 PM CST (11/6) 12:50 PM CST (11/6)
Length of Visible Light 11h 10m
Length of Day
10h 13m
Waning Gibbous, 53% of the Moon is Illuminated
Nov 6
Waning Gibbous
Nov 6
Last Quarter
Nov 13
New
Nov 20
First Quarter
Nov 28
Full

Hourly Weather History & Observations

Time (CST) Temp. Windchill Dew Point Humidity Pressure Visibility Wind Dir Wind Speed Gust Speed Precip Events Conditions
12:15 AM 44.6 °F 40.7 °F 39.2 °F 81% 30.08 in 5.0 mi SSW 6.9 mph - N/A   Haze
12:35 AM 44.6 °F 41.4 °F 39.2 °F 81% 30.09 in 5.0 mi SSW 5.8 mph - N/A   Haze
12:55 AM 44.6 °F 40.2 °F 39.2 °F 81% 30.06 in 5.0 mi South 8.1 mph - N/A   Haze
1:15 AM 44.6 °F 40.2 °F 39.2 °F 81% 30.04 in 5.0 mi South 8.1 mph - N/A   Haze
1:35 AM 44.6 °F 40.2 °F 39.2 °F 81% 30.05 in 5.0 mi South 8.1 mph - N/A   Haze
1:55 AM 44.6 °F 40.7 °F 39.2 °F 81% 30.05 in 5.0 mi South 6.9 mph - N/A   Haze
2:15 AM 44.6 °F 40.2 °F 37.4 °F 76% 30.04 in 5.0 mi South 8.1 mph - N/A   Haze
2:35 AM 44.6 °F 39.7 °F 37.4 °F 76% 30.04 in 5.0 mi SSW 9.2 mph - N/A   Haze
2:55 AM 44.6 °F 39.7 °F 37.4 °F 76% 30.02 in 5.0 mi South 9.2 mph - N/A   Haze
3:15 AM 44.6 °F 40.2 °F 37.4 °F 76% 30.03 in 5.0 mi SSW 8.1 mph - N/A   Light Drizzle
3:35 AM 44.6 °F 39.7 °F 37.4 °F 76% 30.00 in 4.0 mi South 9.2 mph - N/A   Haze
3:55 AM 44.6 °F 40.7 °F 37.4 °F 76% 30.01 in 4.0 mi SSW 6.9 mph - N/A   Haze
4:15 AM 44.6 °F 39.7 °F 39.2 °F 81% 30.01 in 4.0 mi SSW 9.2 mph - N/A   Haze
4:35 AM 44.6 °F 39.2 °F 39.2 °F 81% 29.99 in 4.0 mi SSW 10.4 mph - N/A   Haze
4:55 AM 44.6 °F 38.8 °F 39.2 °F 81% 29.98 in 4.0 mi SW 11.5 mph - N/A   Haze
5:15 AM 44.6 °F 38.4 °F 39.2 °F 81% 29.99 in 4.0 mi SW 12.7 mph - N/A   Haze
5:35 AM 44.6 °F 38.8 °F 39.2 °F 81% 29.99 in 4.0 mi SW 11.5 mph - N/A   Haze
5:55 AM 44.6 °F 37.8 °F 37.4 °F 76% 29.97 in 5.0 mi SW 15.0 mph - N/A   Haze
6:15 AM 44.6 °F 38.4 °F 37.4 °F 76% 29.97 in 5.0 mi WSW 12.7 mph - N/A   Haze
6:35 AM 42.8 °F 37.0 °F 37.4 °F 81% 29.97 in 7.0 mi WSW 10.4 mph - N/A   Mostly Cloudy
6:55 AM 42.8 °F 37.5 °F 37.4 °F 81% 29.98 in 5.0 mi WSW 9.2 mph - N/A   Haze
7:15 AM 42.8 °F 36.6 °F 37.4 °F 81% 29.98 in 4.0 mi WSW 11.5 mph - N/A   Haze
7:35 AM 44.6 °F 39.2 °F 37.4 °F 76% 29.99 in 5.0 mi West 10.4 mph - N/A   Haze
7:55 AM 44.6 °F 39.2 °F 37.4 °F 76% 30.00 in 7.0 mi West 10.4 mph 15.0 mph N/A   Overcast
8:15 AM 44.6 °F 39.7 °F 39.2 °F 81% 30.00 in 7.0 mi West 9.2 mph - N/A   Overcast
8:35 AM 46.4 °F 41.9 °F 39.2 °F 76% 30.01 in 10.0 mi WNW 9.2 mph - N/A   Overcast
8:55 AM 48.2 °F - 39.2 °F 71% 30.02 in 10.0 mi NW 6.9 mph - N/A   Mostly Cloudy
9:15 AM 50.0 °F - 41.0 °F 71% 30.02 in 10.0 mi NNW 9.2 mph - N/A   Scattered Clouds
9:35 AM 51.8 °F - 41.0 °F 67% 30.02 in 10.0 mi NNW 13.8 mph 23.0 mph N/A   Clear
9:55 AM 51.8 °F - 39.2 °F 62% 30.02 in 10.0 mi NNW 13.8 mph 21.9 mph N/A   Clear
10:15 AM 53.6 °F - 37.4 °F 54% 30.02 in 10.0 mi NNW 16.1 mph 25.3 mph N/A   Clear
10:35 AM 53.6 °F - 35.6 °F 51% 30.02 in 10.0 mi NNW 17.3 mph 31.1 mph N/A   Clear
10:55 AM 55.4 °F - 37.4 °F 51% 30.02 in 10.0 mi NNW 16.1 mph 20.7 mph N/A   Clear
11:15 AM 55.4 °F - 37.4 °F 51% 30.03 in 10.0 mi North 19.6 mph 23.0 mph N/A   Clear
11:35 AM 57.2 °F - 33.8 °F 41% 30.02 in 10.0 mi NNW 15.0 mph 23.0 mph N/A   Clear
11:55 AM 57.2 °F - 33.8 °F 41% 30.02 in 10.0 mi NW 17.3 mph 25.3 mph N/A   Clear
12:15 PM 57.2 °F - 32.0 °F 38% 30.01 in 10.0 mi NNW 16.1 mph 26.5 mph N/A   Clear
12:35 PM 59.0 °F - 30.2 °F 34% 30.00 in 10.0 mi NW 18.4 mph 25.3 mph N/A   Clear
12:55 PM 59.0 °F - 28.4 °F 31% 30.00 in 10.0 mi NW 17.3 mph 25.3 mph N/A   Clear
1:15 PM 60.8 °F - 28.4 °F 29% 29.99 in 10.0 mi NNW 19.6 mph 25.3 mph N/A   Clear
1:35 PM 60.8 °F - 26.6 °F 27% 29.99 in 10.0 mi NNW 17.3 mph 26.5 mph N/A   Clear
1:55 PM 60.8 °F - 26.6 °F 27% 29.99 in 10.0 mi NW 18.4 mph 29.9 mph N/A   Clear
2:15 PM 60.8 °F - 26.6 °F 27% 29.99 in 10.0 mi NNW 16.1 mph 25.3 mph N/A   Clear
2:35 PM 60.8 °F - 26.6 °F 27% 29.99 in 10.0 mi NW 11.5 mph 21.9 mph N/A   Scattered Clouds
2:55 PM 60.8 °F - 24.8 °F 25% 29.99 in 10.0 mi NW 16.1 mph 26.5 mph N/A   Scattered Clouds
3:15 PM 60.8 °F - 24.8 °F 25% 30.00 in 10.0 mi NNW 17.3 mph 25.3 mph N/A   Clear
3:35 PM 60.8 °F - 24.8 °F 25% 30.00 in 10.0 mi NNW 18.4 mph 28.8 mph N/A   Clear
3:55 PM 59.0 °F - 28.4 °F 31% 30.00 in 10.0 mi NNW 19.6 mph 28.8 mph N/A   Clear
4:15 PM 57.2 °F - 28.4 °F 33% 30.01 in 10.0 mi NNW 17.3 mph 24.2 mph N/A   Clear
4:35 PM 57.2 °F - 30.2 °F 36% 30.02 in 10.0 mi NNW 12.7 mph 25.3 mph N/A   Clear
4:55 PM 55.4 °F - 30.2 °F 38% 30.02 in 10.0 mi NNW 11.5 mph - N/A   Clear
5:35 PM 51.8 °F - 32.0 °F 47% 30.03 in 10.0 mi NNW 6.9 mph - N/A   Clear
5:55 PM 51.8 °F - 30.2 °F 44% 30.04 in 10.0 mi WNW 5.8 mph - N/A   Scattered Clouds
6:15 PM 50.0 °F - 32.0 °F 50% 30.04 in 10.0 mi WNW 3.5 mph - N/A   Scattered Clouds
6:35 PM 48.2 °F - 32.0 °F 54% 30.05 in 10.0 mi Calm Calm - N/A   Scattered Clouds
6:55 PM 46.4 °F 44.3 °F 30.2 °F 53% 30.06 in 10.0 mi WNW 4.6 mph - N/A   Scattered Clouds
7:15 PM 48.2 °F - 30.2 °F 50% 30.06 in 10.0 mi WNW 5.8 mph - N/A   Scattered Clouds
7:35 PM 48.2 °F - 30.2 °F 50% 30.06 in 10.0 mi WNW 4.6 mph - N/A   Scattered Clouds
7:55 PM 46.4 °F 43.5 °F 32.0 °F 57% 30.06 in 10.0 mi WNW 5.8 mph - N/A   Scattered Clouds
8:15 PM 44.6 °F 41.4 °F 30.2 °F 57% 30.06 in 10.0 mi WNW 5.8 mph - N/A   Scattered Clouds
8:35 PM 44.6 °F 42.2 °F 30.2 °F 57% 30.07 in 10.0 mi NW 4.6 mph - N/A   Scattered Clouds
8:55 PM 37.4 °F 33.8 °F 30.2 °F 75% 30.07 in 10.0 mi NW 4.6 mph - N/A   Scattered Clouds
9:15 PM 44.6 °F 41.4 °F 32.0 °F 61% 30.07 in 10.0 mi NW 5.8 mph - N/A   Scattered Clouds
9:35 PM 44.6 °F 42.2 °F 30.2 °F 57% 30.07 in 10.0 mi NNW 4.6 mph - N/A   Scattered Clouds
9:55 PM 42.8 °F 39.3 °F 32.0 °F 66% 30.07 in 10.0 mi NNW 5.8 mph - N/A   Scattered Clouds
10:15 PM 42.8 °F 40.1 °F 30.2 °F 61% 30.07 in 10.0 mi NW 4.6 mph - N/A   Scattered Clouds
10:35 PM 44.6 °F 41.4 °F 32.0 °F 61% 30.07 in 10.0 mi NW 5.8 mph - N/A   Scattered Clouds
10:55 PM 37.4 °F 33.8 °F 28.4 °F 70% 30.08 in 10.0 mi WSW 4.6 mph - N/A   Scattered Clouds
11:15 PM 35.6 °F 30.7 °F 28.4 °F 75% 30.08 in 10.0 mi SW 5.8 mph - N/A   Scattered Clouds
11:35 PM 35.6 °F 31.7 °F 28.4 °F 75% 30.08 in 10.0 mi WSW 4.6 mph - N/A   Scattered Clouds
11:55 PM 33.8 °F 29.6 °F 26.6 °F 75% 30.08 in 10.0 mi West 4.6 mph - N/A   Scattered Clouds